Location: Killarney
(45.9719°N, 81.5115°W)
Time: 06:02:22
(UTC-04:00)

ISS - Visible Passes

Search period start: 16 July 2019 00:00
Search period end: 26 July 2019 00:00
Orbit: 409 x 418 km, 51.6° (Epoch: 16 July)

Date Brightness Start Highest point End Pass type
(mag) Time Alt. Az. Time Alt. Az. Time Alt. Az.
16 Jul -3.7 00:06:29 10° WSW 00:09:49 77° NNW 00:13:10 10° ENE visible
16 Jul -1.9 01:43:50 10° WNW 01:46:51 31° N 01:49:52 10° ENE visible
16 Jul -2.2 03:20:57 10° NW 03:24:04 36° NNE 03:27:11 10° E visible
16 Jul -3.8 04:57:37 10° WNW 05:00:55 61° SSW 05:04:10 10° SE visible
16 Jul -3.9 23:17:13 10° SW 23:20:33 70° SSE 23:23:51 10° ENE visible
17 Jul -2.1 00:54:19 10° W 00:57:25 35° NNW 01:00:31 10° NE visible
17 Jul -1.9 02:31:37 10° WNW 02:34:39 31° N 02:37:40 10° ENE visible
17 Jul -3.8 04:08:17 10° WNW 04:11:38 85° NNE 04:14:56 10° ESE visible
17 Jul -3.5 22:28:06 10° SW 22:31:17 42° SE 22:34:28 10° ENE visible
18 Jul -2.6 00:04:47 10° W 00:07:59 43° NNW 00:11:12 10° ENE visible
18 Jul -1.7 01:42:12 10° WNW 01:45:11 29° N 01:48:09 10° ENE visible
18 Jul -3.2 03:19:00 10° WNW 03:22:17 58° NNE 03:25:34 10° ESE visible
18 Jul -2.8 04:55:58 10° W 04:58:48 26° SW 05:01:36 10° SSE visible
18 Jul -3.2 23:15:18 10° WSW 23:18:36 58° NNW 23:21:54 10° ENE visible
19 Jul -1.7 00:52:43 10° WNW 00:55:42 29° N 00:58:41 10° ENE visible
19 Jul -2.6 02:29:41 10° WNW 02:32:53 43° NNE 02:36:05 10° E visible
19 Jul -3.5 04:06:25 10° WNW 04:09:35 42° SW 04:12:44 10° SE visible
19 Jul -3.8 22:25:53 10° WSW 22:29:14 85° NNW 22:32:34 10° ENE visible
20 Jul -1.9 00:03:10 10° WNW 00:06:13 32° N 00:09:15 10° ENE visible
20 Jul -2.1 01:40:21 10° NW 01:43:27 35° NNE 01:45:56 14° ENE visible
20 Jul -2.2 03:17:00 10° WNW 03:18:29 24° WNW 03:18:29 24° WNW visible
20 Jul -2.2 23:13:36 10° W 23:16:45 37° NNW 23:19:52 10° NE visible
21 Jul -1.9 00:50:56 10° WNW 00:53:58 31° N 00:56:07 16° ENE visible
21 Jul -1.7 02:27:39 10° WNW 02:28:52 21° WNW 02:28:52 21° WNW visible
21 Jul -2.6 22:24:02 10° W 22:27:16 46° NNW 22:30:32 10° ENE visible
22 Jul -1.8 00:01:28 10° WNW 00:04:27 29° N 00:07:25 10° ENE visible
22 Jul -2.2 01:38:18 10° WNW 01:40:23 32° NW 01:40:23 32° NW visible
22 Jul -1.8 23:11:55 10° WNW 23:14:56 30° N 23:17:55 10° ENE visible
23 Jul -2.5 00:48:57 10° NW 00:52:07 40° NNE 00:52:10 40° NNE visible
23 Jul -2.0 22:22:19 10° WNW 22:25:24 33° N 22:28:28 10° ENE visible
23 Jul -2.2 23:59:33 10° WNW 00:02:38 33° N 00:04:06 22° ENE visible
24 Jul -1.2 01:36:13 10° WNW 01:36:54 15° WNW 01:36:54 15° WNW visible
24 Jul -1.9 23:10:05 10° WNW 23:13:06 30° N 23:16:06 10° ENE visible
25 Jul -2.3 00:46:50 10° WNW 00:48:54 35° NW 00:48:54 35° NW visible
25 Jul -1.9 22:20:33 10° WNW 22:23:33 29° N 22:26:31 10° ENE visible
